Overview Statistics Trail Chart Weather Telemetry Raw packets
 

This is the latest recevied weather packets stored in our database for station/object N0QWM. If no packets are shown the sender has not sent any weather packets the latest 10 day(s).

<< 43 44 45 46 47 48 49 >>
Time Temp. Humidity Pressure Rain* Wind** Luminosity Snow
1788366562 36.11° C 52% 1024.2 hPa 0 mm - 654 W/m² -
1788366257 36.11° C 53% 1024.5 hPa 0 mm - 680 W/m² -
1788365952 35.56° C 53% 1024.5 hPa 0 mm - 685 W/m² -
1788365647 35.56° C 52% 1024.7 hPa 0 mm - 681 W/m² -
1788365343 35.56° C 53% 1024.7 hPa 0 mm - 678 W/m² -
1788365038 36.11° C 51% 1024.5 hPa 0 mm - 695 W/m² -
1788364736 35.56° C 55% 1024.7 hPa 0 mm - 691 W/m² -
1788364436 34.44° C 56% 1024.6 hPa 0 mm - 686 W/m² -
1788364130 34.44° C 55% 1024.9 hPa 0 mm - 675 W/m² -
1788363826 34.44° C 56% 1024.7 hPa 0 mm - 673 W/m² -
1788363525 34.44° C 56% 1024.6 hPa 0 mm - 666 W/m² -
1788363250 33.89° C 57% 1025.1 hPa 0 mm - 701 W/m² -
1788362920 33.89° C 57% 1024.8 hPa 0 mm - 717 W/m² -
1788362616 33.89° C 59% 1024.6 hPa 0 mm - 709 W/m² -
1788362311 33.89° C 62% 1024.9 hPa 0 mm - 703 W/m² -
1788362006 33.89° C 64% 1024.8 hPa 0 mm - 688 W/m² -
1788361701 33.33° C 63% 1024.9 hPa 0 mm - 734 W/m² -
1788361398 32.78° C 65% 1024.8 hPa 0 mm - 699 W/m² -
1788361097 32.78° C 66% 1025 hPa 0 mm - 649 W/m² -
1788360792 32.22° C 67% 1024.9 hPa 0 mm - 555 W/m² -
1788360488 32.22° C 68% 1024.9 hPa 0 mm - 559 W/m² -
1788360183 32.22° C 69% 1024.9 hPa 0 mm - 565 W/m² -
1788359878 31.67° C 69% 1024.8 hPa 0 mm - 560 W/m² -
1788359573 31.67° C 70% 1024.7 hPa 0 mm - 515 W/m² -
1788359268 31.67° C 69% 1024.9 hPa 0 mm - 488 W/m² -

* Rain latest hour (hover to see other rain measurements)
** Current wind speed in m/s (hover to see current wind gust speed)